Back to catalog

SCOUT G-1 DEB

AlivePO
NORAD 22707·DEBRIS·🇺🇸 United States

Launched Jun 25, 1993 from Vandenberg Space Force Base

Loading…

Next Passes (next 24 hours)

TLE

FreshSource: Space-Track

Epoch: Sep 14, 2026, 01:59 UTC

1 22707U 93041D   26257.08286254  .00000411  00000-0  14665-3 0  9993
2 22707  90.1327 301.3794 0137434   2.5420 357.6442 14.27744946722228

Track SCOUT G-1 DEB in real time with AllMySat

Download on the App Store